{"data":{"norad_id":59544,"epoch":"2026-05-24T17:48:31.929408Z","epoch_age_seconds":107390,"freshness":"FRESH","line1":"1 59544U 24074L   26144.74203622  .00002197  00000+0  89392-4 0  9990","line2":"2 59544  43.0025 274.1907 0000876 280.8965  79.1788 15.27559687117646","mean_motion":15.27559687,"eccentricity":8.76e-5,"inclination_deg":43.0025,"raan_deg":274.1907,"arg_perigee_deg":280.8965,"mean_anomaly_deg":79.1788,"bstar":8.9392e-5,"rev_number":11764,"period_min":94.268002242717,"perigee_km":482.50887591294,"apogee_km":483.71096637353,"semimajor_km":6861.2469211432,"source":"CELESTRAK","updated_at":"2026-05-25T13:38:18.980704Z"}}